FW6216 Weather Reports


Display with metric or nautical units.
time (UTC)temp
F
wind
direction
speed
MPH
gust
MPH
rain 1hr
in
rain 24hr
in
rain mn
in
humidity
%
barometer
mb
20260905010032 62 346 5.0 11.0 0.00 0.01 0.01 62 1016.4
20260905004532 62 341 6.0 13.0 0.00 0.01 0.01 61 1016.3
20260905003035 63 339 5.0 11.0 0.00 0.01 0.01 60 1016.1
20260905001532 63 324 4.0 10.0 0.00 0.01 0.01 61 1016.0
20260905000035 64 322 4.0 8.0 0.00 0.01 0.01 63 1016.1
20260904234537 63 306 3.0 8.0 0.00 0.01 0.01 69 1016.1
20260904233030 60 325 3.0 7.0 0.01 0.01 0.01 77 1016.2
20260904231531 56 25 1.0 6.0 0.01 0.01 0.01 79 1016.6
20260904224537 60 67 7.0 29.0 0.01 0.01 0.00 62 1016.3
20260904223032 62 214 0.0 11.0 0.00 0.00 0.00 56 1016.0
20260904221535 63 220 3.0 7.0 0.00 0.00 0.00 56 1016.0
20260904220035 63 286 1.0 6.0 0.00 0.00 0.00 56 1016.0
20260904214533 63 319 2.0 6.0 0.00 0.00 0.00 56 1015.9
20260904213031 63 34 1.0 10.0 0.00 0.00 0.00 55 1015.9
20260904211651 64 36 4.0 12.0 0.00 0.00 0.00 53 1015.7
20260904210029 65 8 3.0 13.0 0.00 0.00 0.00 54 1015.7
20260904204534 64 6 3.0 10.0 0.00 0.00 0.00 55 1015.8
20260904203030 63 27 4.0 11.0 0.00 0.00 0.00 57 1015.9
20260904201535 63 353 4.0 11.0 0.00 0.00 0.00 56 1016.0
20260904200034 64 7 4.0 11.0 0.00 0.00 0.00 57 1015.9
20260904194536 64 352 5.0 12.0 0.00 0.00 0.00 59 1016.0
20260904193034 62 339 5.0 11.0 0.00 0.00 0.00 62 1016.2
20260904191536 61 358 3.0 9.0 0.00 0.00 0.00 61 1016.3
20260904190035 62 32 5.0 11.0 0.00 0.00 0.00 59 1016.3
20260904183036 63 40 4.0 8.0 0.00 0.00 0.00 57 1016.2
20260904181533 64 48 4.0 12.0 0.00 0.00 0.00 59 1016.1
20260904173032 65 344 3.0 8.0 0.00 0.00 0.00 62 1016.0
20260904171531 62 40 2.0 8.0 0.00 0.00 0.00 66 1016.1
20260904170034 60 325 1.0 6.0 0.00 0.00 0.00 68 1016.3
20260904164529 60 330 0.0 4.0 0.00 0.00 0.00 67 1016.2
20260904163035 62 40 0.0 0.0 0.00 0.00 0.00 66 1016.2
20260904161531 62 49 1.0 5.0 0.00 0.00 0.00 67 1016.0
20260904160029 61 68 0.0 3.0 0.00 0.00 0.00 72 1016.0
20260904154642 58 67 0.0 4.0 0.00 0.00 0.00 82 1016.0
20260904153034 55 330 0.0 4.0 0.00 0.00 0.00 88 1016.0
20260904151605 52 236 0.0 3.0 0.00 0.00 0.00 90 1016.0
20260904150030 49 225 0.0 0.0 0.00 0.00 0.00 91 1015.8
20260904143035 48 225 0.0 3.0 0.00 0.00 0.00 91 1015.6
20260904134536 48 247 0.0 5.0 0.00 0.00 0.00 90 1015.2
20260904131649 47 204 1.0 4.0 0.00 0.00 0.00 89 1014.8
20260904130031 48 247 0.0 0.0 0.00 0.00 0.00 89 1014.8
20260904124606 48 247 0.0 0.0 0.00 0.00 0.00 89 1014.8
20260904123034 48 247 1.0 4.0 0.00 0.00 0.00 89 1014.8
20260904121644 48 203 0.0 3.0 0.00 0.00 0.00 89 1014.7
20260904114606 48 202 0.0 0.0 0.00 0.00 0.00 89 1014.4
20260904111649 48 202 0.0 0.0 0.00 0.00 0.00 89 1014.3
20260904110034 48 202 0.0 0.0 0.00 0.00 0.00 89 1014.2
20260904104606 48 202 0.0 0.0 0.00 0.00 0.00 90 1014.1
20260904103030 47 202 0.0 0.0 0.00 0.00 0.00 90 1014.0
20260904094536 47 202 0.0 4.0 0.00 0.00 0.00 89 1013.7
20260904090052 47 247 0.0 0.0 0.00 0.00 0.00 88 1013.6
20260904084607 47 247 0.0 0.0 0.00 0.00 0.00 88 1013.6
20260904083142 48 247 0.0 0.0 0.00 0.00 0.00 88 1013.4
20260904081530 48 247 0.0 0.0 0.00 0.00 0.00 88 1013.5
20260904080033 47 247 0.0 1.0 0.00 0.00 0.00 88 1013.6
20260904074536 47 247 2.0 3.0 0.00 0.00 0.00 88 1013.5
20260904073033 47 215 0.0 4.0 0.00 0.00 0.00 88 1013.4
20260904071531 46 193 0.0 4.0 0.00 0.00 0.00 87 1013.4
20260904070037 47 246 2.0 4.0 0.00 0.00 0.00 87 1013.4
20260904064534 47 191 1.0 4.0 0.00 0.00 0.00 86 1013.4
20260904061531 48 216 2.0 5.0 0.00 0.00 0.00 84 1013.1
20260904060030 48 155 1.0 4.0 0.00 0.00 0.00 83 1013.0
20260904054533 49 164 2.0 4.0 0.00 0.00 0.00 83 1013.1
20260904051531 50 209 1.0 4.0 0.00 0.00 0.00 82 1013.3
20260904050034 50 253 0.0 4.0 0.00 0.00 0.00 82 1013.3
20260904044551 0 0 0.0 0.0 0.00 0.00 0.00 100
20260904043108 51 275 0.0 0.0 0.00 0.00 0.00 82 1013.2
20260904041536 51 247 0.0 0.0 0.00 0.00 0.00 82 1013.3
20260904040035 51 263 0.0 0.0 0.00 0.00 0.00 82 1013.4
20260904033034 52 272 0.0 0.0 0.00 0.01 0.00 82 1013.2
20260904030031 52 310 1.0 6.0 0.00 0.02 0.00 80 1012.9
20260904024535 52 322 2.0 8.0 0.00 0.02 0.00 79 1012.8
20260904023030 52 291 3.0 8.0 0.00 0.02 0.00 77 1012.7
20260904021529 52 222 1.0 6.0 0.00 0.02 0.00 77 1012.5
20260904020030 53 306 1.0 8.0 0.00 0.02 0.00 75 1012.4
20260904014606 54 273 4.0 9.0 0.00 0.02 0.00 71 1012.4
20260904013033 55 275 3.0 8.0 0.00 0.02 0.00 69 1012.3
20260904011531 55 306 3.0 8.0 0.00 0.02 0.00 68 1012.2